| time (UTC) | temp F | wind direction | speed MPH | gust MPH | rain 1hr in | rain 24hr in | rain mn in | humidity % | barometer mb |
| 20260508040905 | 45 | 161 | 1.0 | 3.0 | 0.01 | 0.18 | 0.02 | 87 | 1006.1 |
| 20260508040405 | 45 | 169 | 1.0 | 3.0 | 0.01 | 0.18 | 0.02 | 88 | 1006.2 |
| 20260508035904 | 45 | 170 | 0.0 | 3.0 | 0.01 | 0.18 | 0.02 | 88 | 1006.1 |
| 20260508034904 | 45 | 247 | 1.0 | 2.0 | 0.01 | 0.18 | 0.02 | 88 | 1005.9 |
| 20260508032903 | 46 | 243 | 1.0 | 2.0 | 0.01 | 0.18 | 0.02 | 87 | 1005.9 |
| 20260508032404 | 46 | 238 | 0.0 | 2.0 | 0.01 | 0.18 | 0.02 | 87 | 1005.9 |
| 20260508031904 | 46 | 237 | 1.0 | 3.0 | 0.00 | 0.17 | 0.01 | 87 | 1005.9 |
| 20260508031403 | 46 | 259 | 0.0 | 2.0 | 0.00 | 0.17 | 0.01 | 87 | 1005.8 |
| 20260508030904 | 46 | 259 | 0.0 | 1.0 | 0.00 | 0.17 | 0.01 | 87 | 1005.8 |
| 20260508030404 | 46 | 249 | 0.0 | 7.0 | 0.00 | 0.17 | 0.01 | 86 | 1005.7 |
| 20260508025403 | 45 | 168 | 1.0 | 6.0 | 0.01 | 0.17 | 0.01 | 87 | 1005.6 |
| 20260508024404 | 45 | 217 | 1.0 | 3.0 | 0.01 | 0.17 | 0.01 | 87 | 1005.3 |
| 20260508023404 | 45 | 175 | 2.0 | 6.0 | 0.01 | 0.17 | 0.01 | 88 | 1005.3 |
| 20260508022404 | 46 | 264 | 1.0 | 2.0 | 0.01 | 0.17 | 0.01 | 88 | 1005.3 |
| 20260508021904 | 46 | 251 | 1.0 | 3.0 | 0.01 | 0.17 | 0.01 | 88 | 1005.3 |
| 20260508021404 | 46 | 280 | 1.0 | 7.0 | 0.01 | 0.17 | 0.01 | 87 | 1005.3 |
| 20260508020904 | 46 | 176 | 2.0 | 5.0 | 0.01 | 0.17 | 0.01 | 86 | 1005.4 |
| 20260508020404 | 46 | 146 | 1.0 | 6.0 | 0.01 | 0.17 | 0.01 | 86 | 1005.3 |
| 20260508015904 | 46 | 48 | 2.0 | 8.0 | 0.00 | 0.16 | 0.00 | 85 | 1005.2 |
| 20260508014904 | 46 | 184 | 0.0 | 3.0 | 0.00 | 0.16 | 0.00 | 85 | 1005.1 |
| 20260508014404 | 46 | 174 | 2.0 | 7.0 | 0.00 | 0.16 | 0.00 | 85 | 1005.0 |
| 20260508013904 | 46 | 169 | 2.0 | 12.0 | 0.00 | 0.16 | 0.00 | 85 | 1004.9 |
| 20260508013403 | 46 | 175 | 3.0 | 6.0 | 0.00 | 0.16 | 0.00 | 86 | 1004.9 |
| 20260508012904 | 46 | 174 | 2.0 | 8.0 | 0.00 | 0.16 | 0.00 | 86 | 1004.9 |
| 20260508012403 | 46 | 233 | 1.0 | 3.0 | 0.00 | 0.16 | 0.00 | 86 | 1005.0 |
| 20260508011904 | 46 | 178 | 1.0 | 7.0 | 0.00 | 0.16 | 0.00 | 86 | 1004.9 |
| 20260508011404 | 46 | 165 | 2.0 | 8.0 | 0.00 | 0.16 | 0.00 | 86 | 1004.8 |
| 20260508010904 | 46 | 176 | 1.0 | 6.0 | 0.00 | 0.16 | 0.00 | 86 | 1004.8 |
| 20260508010404 | 46 | 219 | 1.0 | 3.0 | 0.00 | 0.16 | 0.00 | 85 | 1004.8 |
| 20260508005904 | 46 | 285 | 1.0 | 7.0 | 0.00 | 0.16 | 0.00 | 85 | 1004.7 |
| 20260508005404 | 46 | 170 | 2.0 | 8.0 | 0.00 | 0.16 | 0.00 | 85 | 1004.7 |
| 20260508004904 | 46 | 346 | 2.0 | 7.0 | 0.00 | 0.16 | 0.00 | 85 | 1004.5 |
| 20260508003903 | 46 | 280 | 2.0 | 7.0 | 0.00 | 0.16 | 0.00 | 85 | 1004.3 |
| 20260508002904 | 46 | 182 | 2.0 | 9.0 | 0.00 | 0.16 | 0.00 | 86 | 1004.2 |
| 20260508002405 | 46 | 197 | 3.0 | 7.0 | 0.00 | 0.16 | 0.00 | 86 | 1004.1 |
| 20260508000904 | 46 | 176 | 2.0 | 7.0 | 0.00 | 0.16 | 0.00 | 86 | 1004.2 |
| 20260508000405 | 46 | 178 | 2.0 | 6.0 | 0.00 | 0.16 | 0.00 | 86 | 1004.2 |
| 20260507235904 | 46 | 171 | 3.0 | 7.0 | 0.00 | 0.16 | 0.00 | 86 | 1004.1 |
| 20260507235405 | 46 | 178 | 2.0 | 7.0 | 0.01 | 0.16 | 0.00 | 86 | 1004.1 |
| 20260507234404 | 46 | 203 | 2.0 | 6.0 | 0.01 | 0.16 | 0.00 | 87 | 1004.0 |
| 20260507233904 | 46 | 173 | 2.0 | 8.0 | 0.01 | 0.16 | 0.00 | 87 | 1004.1 |
| 20260507233403 | 46 | 168 | 5.0 | 10.0 | 0.01 | 0.16 | 0.00 | 87 | 1004.1 |
| 20260507232904 | 46 | 173 | 3.0 | 6.0 | 0.01 | 0.16 | 0.00 | 87 | 1004.0 |
| 20260507231904 | 46 | 154 | 3.0 | 7.0 | 0.01 | 0.16 | 0.00 | 87 | 1004.2 |
| 20260507231404 | 46 | 221 | 3.0 | 13.0 | 0.01 | 0.16 | 0.00 | 87 | 1004.1 |
| 20260507230904 | 46 | 251 | 2.0 | 10.0 | 0.01 | 0.16 | 0.00 | 87 | 1004.1 |
| 20260507230404 | 46 | 0 | 1.0 | 9.0 | 0.01 | 0.16 | 0.00 | 86 | 1004.1 |
| 20260507225904 | 47 | 159 | 2.0 | 6.0 | 0.01 | 0.16 | 0.16 | 85 | 1004.2 |
| 20260507225404 | 47 | 294 | 2.0 | 6.0 | 0.01 | 0.16 | 0.16 | 84 | 1004.4 |
| 20260507224404 | 47 | 187 | 2.0 | 12.0 | 0.00 | 0.15 | 0.15 | 82 | 1004.0 |
| 20260507223904 | 47 | 167 | 2.0 | 8.0 | 0.00 | 0.15 | 0.15 | 82 | 1004.0 |
| 20260507223404 | 46 | 217 | 2.0 | 7.0 | 0.00 | 0.15 | 0.15 | 82 | 1004.1 |
| 20260507222904 | 46 | 169 | 1.0 | 7.0 | 0.00 | 0.15 | 0.15 | 83 | 1004.0 |
| 20260507222404 | 47 | 197 | 2.0 | 8.0 | 0.00 | 0.15 | 0.15 | 83 | 1004.1 |
| 20260507221904 | 47 | 155 | 2.0 | 8.0 | 0.00 | 0.15 | 0.15 | 84 | 1004.0 |
| 20260507220904 | 47 | 282 | 2.0 | 6.0 | 0.00 | 0.15 | 0.15 | 84 | 1004.0 |
| 20260507220404 | 47 | 163 | 2.0 | 9.0 | 0.00 | 0.15 | 0.15 | 84 | 1004.0 |
| 20260507215904 | 47 | 164 | 3.0 | 10.0 | 0.00 | 0.15 | 0.15 | 84 | 1004.0 |
| 20260507215404 | 48 | 230 | 2.0 | 8.0 | 0.00 | 0.15 | 0.15 | 84 | 1004.0 |
| 20260507214903 | 48 | 198 | 2.0 | 7.0 | 0.00 | 0.15 | 0.15 | 83 | 1004.1 |
| 20260507213905 | 48 | 191 | 3.0 | 7.0 | 0.00 | 0.15 | 0.15 | 81 | 1004.1 |
| 20260507213404 | 48 | 183 | 3.0 | 8.0 | 0.00 | 0.15 | 0.15 | 81 | 1004.0 |
| 20260507212905 | 48 | 197 | 3.0 | 8.0 | 0.00 | 0.15 | 0.15 | 82 | 1003.9 |
| 20260507211904 | 48 | 295 | 1.0 | 3.0 | 0.00 | 0.15 | 0.15 | 82 | 1004.0 |
| 20260507210904 | 48 | 175 | 5.0 | 8.0 | 0.00 | 0.15 | 0.15 | 82 | 1004.0 |
| 20260507210404 | 47 | 166 | 2.0 | 8.0 | 0.00 | 0.15 | 0.15 | 82 | 1004.1 |
| 20260507205904 | 48 | 219 | 2.0 | 8.0 | 0.00 | 0.15 | 0.15 | 83 | 1004.0 |
| 20260507205404 | 48 | 177 | 3.0 | 8.0 | 0.00 | 0.15 | 0.15 | 83 | 1004.0 |
| 20260507204905 | 48 | 195 | 5.0 | 13.0 | 0.00 | 0.15 | 0.15 | 83 | 1004.0 |
| 20260507204404 | 48 | 173 | 2.0 | 10.0 | 0.00 | 0.15 | 0.15 | 83 | 1004.0 |
| 20260507203904 | 48 | 174 | 2.0 | 9.0 | 0.00 | 0.15 | 0.15 | 83 | 1003.9 |
| 20260507203404 | 48 | 198 | 1.0 | 3.0 | 0.00 | 0.15 | 0.15 | 84 | 1003.9 |
| 20260507202904 | 48 | 161 | 2.0 | 6.0 | 0.00 | 0.15 | 0.15 | 84 | 1003.9 |
| 20260507202404 | 48 | 256 | 1.0 | 5.0 | 0.00 | 0.15 | 0.15 | 83 | 1003.9 |
| 20260507201904 | 48 | 245 | 1.0 | 3.0 | 0.00 | 0.15 | 0.15 | 82 | 1003.9 |
| 20260507201404 | 49 | 276 | 0.0 | 2.0 | 0.00 | 0.15 | 0.15 | 81 | 1003.9 |
| 20260507200904 | 49 | 165 | 2.0 | 9.0 | 0.00 | 0.15 | 0.15 | 80 | 1003.9 |
| 20260507200403 | 49 | 184 | 2.0 | 6.0 | 0.00 | 0.15 | 0.15 | 80 | 1003.7 |
| 20260507195904 | 49 | 164 | 3.0 | 12.0 | 0.00 | 0.15 | 0.15 | 79 | 1003.7 |
| 20260507195404 | 49 | 176 | 3.0 | 9.0 | 0.00 | 0.15 | 0.15 | 78 | 1003.8 |
| 20260507194903 | 49 | 173 | 4.0 | 9.0 | 0.00 | 0.15 | 0.15 | 78 | 1003.7 |
| 20260507194403 | 49 | 179 | 3.0 | 9.0 | 0.00 | 0.15 | 0.15 | 78 | 1003.8 |
| 20260507193904 | 49 | 158 | 3.0 | 9.0 | 0.00 | 0.15 | 0.15 | 79 | 1003.7 |
| 20260507193404 | 49 | 168 | 3.0 | 12.0 | 0.00 | 0.15 | 0.15 | 79 | 1003.7 |
| 20260507192904 | 49 | 179 | 3.0 | 8.0 | 0.00 | 0.15 | 0.15 | 80 | 1003.7 |
| 20260507192405 | 49 | 170 | 4.0 | 7.0 | 0.00 | 0.15 | 0.15 | 80 | 1003.7 |
| 20260507191904 | 49 | 182 | 2.0 | 10.0 | 0.00 | 0.15 | 0.15 | 79 | 1003.7 |
| 20260507190404 | 49 | 195 | 4.0 | 13.0 | 0.00 | 0.15 | 0.15 | 82 | 1003.6 |
| 20260507185904 | 49 | 144 | 3.0 | 12.0 | 0.00 | 0.15 | 0.15 | 83 | 1003.7 |
| 20260507184903 | 50 | 181 | 3.0 | 10.0 | 0.00 | 0.15 | 0.15 | 84 | 1003.6 |
| 20260507184403 | 49 | 180 | 3.0 | 15.0 | 0.00 | 0.15 | 0.15 | 83 | 1003.7 |
| 20260507182904 | 49 | 187 | 6.0 | 15.0 | 0.00 | 0.15 | 0.15 | 84 | 1003.6 |
| 20260507181904 | 49 | 168 | 3.0 | 12.0 | 0.00 | 0.15 | 0.15 | 83 | 1003.6 |
| 20260507181404 | 50 | 174 | 3.0 | 13.0 | 0.00 | 0.15 | 0.15 | 83 | 1003.6 |
| 20260507180904 | 50 | 200 | 4.0 | 13.0 | 0.00 | 0.15 | 0.15 | 82 | 1003.6 |
| 20260507175904 | 50 | 165 | 5.0 | 12.0 | 0.00 | 0.15 | 0.15 | 82 | 1003.5 |
| 20260507175404 | 50 | 180 | 5.0 | 10.0 | 0.00 | 0.15 | 0.15 | 82 | 1003.5 |
| 20260507174904 | 50 | 195 | 5.0 | 13.0 | 0.00 | 0.15 | 0.15 | 82 | 1003.5 |
| 20260507174404 | 50 | 191 | 4.0 | 8.0 | 0.00 | 0.15 | 0.15 | 82 | 1003.6 |
| 20260507173904 | 50 | 160 | 3.0 | 7.0 | 0.00 | 0.15 | 0.15 | 83 | 1003.7 |
| 20260507173404 | 50 | 175 | 4.0 | 12.0 | 0.00 | 0.15 | 0.15 | 83 | 1003.7 |
| 20260507172904 | 50 | 161 | 3.0 | 12.0 | 0.00 | 0.15 | 0.15 | 84 | 1003.6 |
| 20260507172404 | 50 | 182 | 3.0 | 9.0 | 0.00 | 0.15 | 0.15 | 84 | 1003.7 |
| 20260507171904 | 50 | 167 | 2.0 | 13.0 | 0.00 | 0.15 | 0.15 | 84 | 1003.8 |
| 20260507171404 | 50 | 171 | 4.0 | 13.0 | 0.00 | 0.15 | 0.15 | 84 | 1003.7 |
| 20260507170904 | 50 | 178 | 5.0 | 13.0 | 0.00 | 0.15 | 0.15 | 85 | 1003.8 |
| 20260507170404 | 50 | 174 | 3.0 | 12.0 | 0.00 | 0.15 | 0.15 | 85 | 1003.8 |
| 20260507165904 | 50 | 186 | 3.0 | 14.0 | 0.00 | 0.15 | 0.15 | 85 | 1003.9 |
| 20260507164904 | 50 | 151 | 3.0 | 8.0 | 0.00 | 0.15 | 0.15 | 87 | 1003.8 |
| 20260507164404 | 50 | 171 | 3.0 | 15.0 | 0.00 | 0.15 | 0.15 | 87 | 1003.9 |
| 20260507163404 | 50 | 156 | 4.0 | 10.0 | 0.01 | 0.15 | 0.15 | 87 | 1003.8 |
| 20260507162904 | 50 | 148 | 4.0 | 12.0 | 0.01 | 0.15 | 0.15 | 87 | 1003.9 |
| 20260507162404 | 50 | 202 | 3.0 | 8.0 | 0.01 | 0.15 | 0.15 | 88 | 1003.8 |
| 20260507161404 | 49 | 191 | 4.0 | 9.0 | 0.05 | 0.15 | 0.15 | 88 | 1003.9 |
| 20260507160904 | 49 | 253 | 3.0 | 16.0 | 0.14 | 0.15 | 0.15 | 89 | 1003.8 |
| 20260507160403 | 49 | 185 | 4.0 | 9.0 | 0.14 | 0.15 | 0.15 | 89 | 1004.0 |
| 20260507155404 | 49 | 133 | 3.0 | 12.0 | 0.15 | 0.15 | 0.15 | 90 | 1004.0 |
| 20260507154904 | 49 | 194 | 3.0 | 9.0 | 0.15 | 0.15 | 0.15 | 90 | 1003.9 |
| 20260507154404 | 48 | 268 | 3.0 | 21.0 | 0.15 | 0.15 | 0.15 | 90 | 1004.1 |
| 20260507153904 | 48 | 166 | 3.0 | 12.0 | 0.14 | 0.14 | 0.14 | 90 | 1004.1 |
| 20260507153404 | 48 | 156 | 4.0 | 12.0 | 0.14 | 0.14 | 0.14 | 90 | 1004.2 |
| 20260507152903 | 48 | 181 | 2.0 | 10.0 | 0.14 | 0.14 | 0.14 | 90 | 1004.3 |
| 20260507152404 | 49 | 161 | 2.0 | 8.0 | 0.14 | 0.14 | 0.14 | 90 | 1004.2 |
| 20260507151904 | 49 | 161 | 3.0 | 9.0 | 0.12 | 0.12 | 0.12 | 90 | 1004.3 |
| 20260507151406 | 34 | 168 | 0.0 | 2.0 | 0.10 | 0.10 | 0.10 | 90 | 1016.7 |